Location: Newark
(13.6797°N, 8.5297°E)
Time: 06:34:44
(UTC+00:00)

Courier 1B Rocket - Pass Details

Date: 22 January 2020
Orbit: 920 x 1202 km, 28.2° (Epoch: 17 February)

Event Time Altitude Azimuth Distance (km) Brightness Sun altitude
Rises 13:52:35 0° 294° (WNW) 3,749 8.3 42.9°
Reaches altitude 10° 13:56:03 10° 309° (NW) 2,747 7.5 42.3°
Maximum altitude 14:00:56 21° 357° (N) 1,987 6.6 41.4°
Drops below altitude 10° 14:05:39 10° 46° (NE) 2,636 6.9 40.5°
Sets 14:08:54 0° 62° (ENE) 3,558 7.5 40.0°
